| time (UTC) | temp F | wind direction | speed knots | gust knots | rain 1hr in | rain 24hr in | rain mn in | humidity % | barometer mb |
| 20260507195650 | 62 | 2 | 7.8 | 13.0 | 0.00 | 0.00 | 0.00 | 66 | 1015.9 |
| 20260507195150 | 62 | 320 | 9.6 | 13.9 | 0.00 | 0.00 | 0.00 | 65 | 1016.0 |
| 20260507194649 | 63 | 351 | 9.6 | 13.9 | 0.00 | 0.00 | 0.00 | 65 | 1016.0 |
| 20260507194151 | 63 | 323 | 10.4 | 13.9 | 0.00 | 0.00 | 0.00 | 65 | 1016.0 |
| 20260507193649 | 63 | 323 | 8.7 | 13.0 | 0.00 | 0.00 | 0.00 | 65 | 1016.1 |
| 20260507193151 | 63 | 289 | 8.7 | 12.2 | 0.00 | 0.00 | 0.00 | 65 | 1016.1 |
| 20260507192650 | 63 | 316 | 7.8 | 12.2 | 0.00 | 0.00 | 0.00 | 66 | 1016.1 |
| 20260507192149 | 63 | 326 | 7.8 | 12.2 | 0.00 | 0.00 | 0.00 | 66 | 1016.2 |
| 20260507191649 | 63 | 334 | 7.8 | 12.2 | 0.00 | 0.00 | 0.00 | 66 | 1016.2 |
| 20260507191151 | 63 | 326 | 7.0 | 13.9 | 0.00 | 0.00 | 0.00 | 67 | 1016.2 |
| 20260507190649 | 62 | 312 | 7.0 | 13.9 | 0.00 | 0.00 | 0.00 | 67 | 1016.2 |
| 20260507190149 | 62 | 334 | 9.6 | 13.9 | 0.00 | 0.00 | 0.00 | 66 | 1016.2 |
| 20260507185650 | 62 | 323 | 7.0 | 13.0 | 0.00 | 0.00 | 0.00 | 66 | 1016.3 |
| 20260507185149 | 62 | 322 | 6.1 | 12.2 | 0.00 | 0.00 | 0.00 | 67 | 1016.3 |
| 20260507184649 | 62 | 326 | 7.0 | 13.0 | 0.00 | 0.00 | 0.00 | 67 | 1016.3 |
| 20260507184151 | 62 | 327 | 7.8 | 13.0 | 0.00 | 0.00 | 0.00 | 68 | 1016.3 |
| 20260507183649 | 61 | 341 | 8.7 | 13.0 | 0.00 | 0.00 | 0.00 | 68 | 1016.3 |
| 20260507183149 | 61 | 333 | 9.6 | 13.9 | 0.00 | 0.00 | 0.00 | 68 | 1016.3 |
| 20260507182650 | 61 | 315 | 8.7 | 13.9 | 0.00 | 0.00 | 0.00 | 67 | 1016.4 |
| 20260507182149 | 62 | 326 | 10.4 | 13.9 | 0.00 | 0.00 | 0.00 | 67 | 1016.4 |
| 20260507181649 | 62 | 322 | 9.6 | 13.0 | 0.00 | 0.00 | 0.00 | 67 | 1016.4 |
| 20260507181151 | 61 | 327 | 7.8 | 14.8 | 0.00 | 0.00 | 0.00 | 68 | 1016.5 |
| 20260507180649 | 61 | 329 | 9.6 | 14.8 | 0.00 | 0.00 | 0.00 | 68 | 1016.5 |
| 20260507180149 | 61 | 324 | 9.6 | 14.8 | 0.00 | 0.00 | 0.00 | 67 | 1016.5 |
| 20260507175650 | 61 | 322 | 7.8 | 13.9 | 0.00 | 0.00 | 0.00 | 68 | 1016.6 |
| 20260507175149 | 61 | 320 | 8.7 | 13.9 | 0.00 | 0.00 | 0.00 | 68 | 1016.7 |
| 20260507174649 | 60 | 298 | 7.0 | 13.9 | 0.00 | 0.00 | 0.00 | 70 | 1016.6 |
| 20260507174151 | 60 | 341 | 8.7 | 13.9 | 0.00 | 0.00 | 0.00 | 69 | 1016.6 |
| 20260507173650 | 59 | 312 | 7.8 | 13.9 | 0.00 | 0.00 | 0.00 | 70 | 1016.6 |
| 20260507173149 | 58 | 341 | 7.0 | 13.9 | 0.00 | 0.00 | 0.00 | 72 | 1016.6 |
| 20260507172650 | 58 | 324 | 8.7 | 13.0 | 0.00 | 0.00 | 0.00 | 71 | 1016.7 |
| 20260507172149 | 58 | 320 | 7.8 | 13.0 | 0.00 | 0.00 | 0.00 | 71 | 1016.8 |
| 20260507171649 | 58 | 323 | 8.7 | 12.2 | 0.00 | 0.00 | 0.00 | 71 | 1016.8 |
| 20260507171151 | 58 | 340 | 7.8 | 12.2 | 0.00 | 0.00 | 0.00 | 72 | 1016.8 |
| 20260507170649 | 58 | 345 | 7.8 | 12.2 | 0.00 | 0.00 | 0.00 | 72 | 1016.8 |
| 20260507165650 | 57 | 347 | 7.8 | 12.2 | 0.00 | 0.00 | 0.00 | 72 | 1016.8 |
| 20260507165149 | 58 | 319 | 7.8 | 11.3 | 0.00 | 0.00 | 0.00 | 72 | 1016.8 |
| 20260507164649 | 57 | 341 | 7.0 | 11.3 | 0.00 | 0.00 | 0.00 | 72 | 1016.8 |
| 20260507164150 | 58 | 333 | 7.8 | 9.6 | 0.00 | 0.00 | 0.00 | 73 | 1016.9 |
| 20260507163649 | 57 | 324 | 7.0 | 9.6 | 0.00 | 0.00 | 0.00 | 73 | 1016.8 |
| 20260507163148 | 57 | 326 | 6.1 | 8.7 | 0.00 | 0.00 | 0.00 | 73 | 1016.9 |
| 20260507162649 | 57 | 344 | 5.2 | 8.7 | 0.00 | 0.00 | 0.00 | 73 | 1016.9 |
| 20260507162149 | 57 | 323 | 4.3 | 8.7 | 0.00 | 0.00 | 0.00 | 74 | 1016.9 |
| 20260507161649 | 56 | 341 | 6.1 | 7.8 | 0.00 | 0.00 | 0.00 | 75 | 1016.9 |
| 20260507161150 | 56 | 313 | 5.2 | 8.7 | 0.00 | 0.00 | 0.00 | 75 | 1016.9 |
| 20260507160648 | 55 | 309 | 3.5 | 8.7 | 0.00 | 0.00 | 0.00 | 76 | 1016.9 |
| 20260507160149 | 55 | 320 | 5.2 | 8.7 | 0.00 | 0.00 | 0.00 | 76 | 1016.9 |
| 20260507155649 | 55 | 333 | 6.1 | 7.8 | 0.00 | 0.00 | 0.00 | 75 | 1016.9 |
| 20260507155149 | 55 | 331 | 4.3 | 7.8 | 0.00 | 0.00 | 0.00 | 76 | 1016.9 |
| 20260507154648 | 55 | 315 | 6.1 | 8.7 | 0.00 | 0.00 | 0.00 | 77 | 1016.9 |
| 20260507154149 | 54 | 329 | 3.5 | 8.7 | 0.00 | 0.00 | 0.00 | 77 | 1016.9 |
| 20260507153649 | 54 | 323 | 4.3 | 8.7 | 0.00 | 0.00 | 0.00 | 78 | 1017.0 |
| 20260507153148 | 54 | 320 | 4.3 | 7.8 | 0.00 | 0.00 | 0.00 | 78 | 1016.9 |
| 20260507152649 | 54 | 323 | 4.3 | 7.0 | 0.00 | 0.00 | 0.00 | 78 | 1017.0 |
| 20260507152149 | 54 | 331 | 4.3 | 7.0 | 0.00 | 0.00 | 0.00 | 78 | 1016.9 |
| 20260507151649 | 54 | 324 | 2.6 | 7.0 | 0.00 | 0.00 | 0.00 | 79 | 1016.9 |
| 20260507151151 | 54 | 323 | 3.5 | 7.0 | 0.00 | 0.00 | 0.00 | 79 | 1016.8 |
| 20260507150648 | 54 | 320 | 5.2 | 7.0 | 0.00 | 0.00 | 0.00 | 79 | 1016.8 |
| 20260507145649 | 54 | 333 | 3.5 | 7.0 | 0.00 | 0.00 | 0.00 | 80 | 1016.8 |
| 20260507145149 | 53 | 340 | 4.3 | 6.1 | 0.00 | 0.00 | 0.00 | 80 | 1016.9 |
| 20260507144649 | 53 | 330 | 3.5 | 5.2 | 0.00 | 0.00 | 0.00 | 81 | 1016.9 |
| 20260507144151 | 53 | 323 | 2.6 | 4.3 | 0.00 | 0.00 | 0.00 | 81 | 1016.9 |
| 20260507143649 | 53 | 319 | 0.0 | 4.3 | 0.00 | 0.00 | 0.00 | 81 | 1016.9 |
| 20260507143149 | 52 | 313 | 0.0 | 4.3 | 0.00 | 0.00 | 0.00 | 82 | 1016.9 |
| 20260507142650 | 52 | 7 | 1.7 | 5.2 | 0.00 | 0.00 | 0.00 | 82 | 1016.8 |
| 20260507142149 | 52 | 2 | 0.9 | 5.2 | 0.00 | 0.00 | 0.00 | 82 | 1016.8 |
| 20260507141648 | 52 | 334 | 1.7 | 5.2 | 0.00 | 0.00 | 0.00 | 82 | 1016.8 |
| 20260507141151 | 52 | 8 | 0.9 | 3.5 | 0.00 | 0.00 | 0.00 | 82 | 1016.8 |
| 20260507140649 | 51 | 338 | 0.0 | 3.5 | 0.00 | 0.00 | 0.00 | 81 | 1016.8 |
| 20260507135649 | 51 | 0 | 0.0 | 0.0 | 0.00 | 0.00 | 0.00 | 81 | 1016.7 |
| 20260507135149 | 51 | 0 | 0.0 | 2.6 | 0.00 | 0.00 | 0.00 | 81 | 1016.6 |
| 20260507134648 | 51 | 337 | 0.0 | 2.6 | 0.00 | 0.00 | 0.00 | 80 | 1016.6 |
| 20260507134151 | 51 | 23 | 0.0 | 2.6 | 0.00 | 0.00 | 0.00 | 80 | 1016.6 |
| 20260507133649 | 51 | 0 | 0.0 | 3.5 | 0.00 | 0.00 | 0.00 | 80 | 1016.6 |
| 20260507133148 | 52 | 345 | 0.0 | 3.5 | 0.00 | 0.00 | 0.00 | 80 | 1016.6 |
| 20260507132651 | 52 | 327 | 0.0 | 3.5 | 0.00 | 0.00 | 0.00 | 80 | 1016.5 |
| 20260507132149 | 52 | 12 | 0.9 | 3.5 | 0.00 | 0.00 | 0.00 | 80 | 1016.5 |
| 20260507131649 | 52 | 26 | 0.0 | 3.5 | 0.00 | 0.00 | 0.00 | 79 | 1016.5 |
| 20260507131151 | 53 | 309 | 0.0 | 3.5 | 0.00 | 0.00 | 0.00 | 79 | 1016.5 |
| 20260507130649 | 53 | 345 | 0.0 | 1.7 | 0.00 | 0.00 | 0.00 | 79 | 1016.5 |
| 20260507130150 | 53 | 320 | 0.0 | 1.7 | 0.00 | 0.00 | 0.00 | 79 | 1016.6 |
| 20260507125648 | 53 | 306 | 0.0 | 1.7 | 0.00 | 0.00 | 0.00 | 79 | 1016.6 |
| 20260507124647 | 53 | 19 | 0.0 | 5.2 | 0.00 | 0.00 | 0.00 | 79 | 1016.6 |
| 20260507124148 | 53 | 344 | 0.0 | 5.2 | 0.00 | 0.00 | 0.00 | 79 | 1016.6 |
| 20260507123648 | 53 | 357 | 0.9 | 5.2 | 0.00 | 0.00 | 0.00 | 79 | 1016.6 |
| 20260507123148 | 53 | 317 | 2.6 | 5.2 | 0.00 | 0.00 | 0.00 | 79 | 1016.7 |
| 20260507122653 | 53 | 5 | 0.9 | 4.3 | 0.00 | 0.00 | 0.00 | 79 | 1016.7 |
| 20260507122151 | 53 | 348 | 1.7 | 7.8 | 0.00 | 0.00 | 0.00 | 79 | 1016.7 |
| 20260507121648 | 53 | 355 | 0.9 | 7.8 | 0.00 | 0.00 | 0.00 | 79 | 1016.8 |
| 20260507121151 | 53 | 347 | 1.7 | 7.8 | 0.00 | 0.00 | 0.00 | 80 | 1016.8 |
| 20260507120650 | 53 | 317 | 0.9 | 6.1 | 0.00 | 0.00 | 0.00 | 80 | 1016.9 |
| 20260507115648 | 53 | 345 | 2.6 | 5.2 | 0.00 | 0.00 | 0.00 | 80 | 1016.9 |
| 20260507114648 | 53 | 354 | 2.6 | 5.2 | 0.00 | 0.00 | 0.00 | 80 | 1016.9 |
| 20260507114151 | 53 | 1 | 1.7 | 8.7 | 0.00 | 0.00 | 0.00 | 80 | 1017.0 |
| 20260507113649 | 53 | 348 | 2.6 | 8.7 | 0.00 | 0.00 | 0.00 | 80 | 1017.0 |
| 20260507113148 | 53 | 337 | 2.6 | 8.7 | 0.00 | 0.00 | 0.00 | 80 | 1017.0 |
| 20260507112648 | 53 | 7 | 5.2 | 7.0 | 0.00 | 0.00 | 0.00 | 81 | 1017.0 |
| 20260507112150 | 53 | 336 | 1.7 | 4.3 | 0.00 | 0.00 | 0.00 | 81 | 1017.0 |
| 20260507111649 | 53 | 341 | 2.6 | 6.1 | 0.00 | 0.00 | 0.00 | 81 | 1017.1 |
| 20260507110649 | 53 | 0 | 1.7 | 6.1 | 0.00 | 0.00 | 0.00 | 81 | 1017.1 |
| 20260507110148 | 53 | 336 | 1.7 | 3.5 | 0.00 | 0.00 | 0.00 | 81 | 1017.1 |
| 20260507105650 | 53 | 0 | 0.0 | 0.9 | 0.00 | 0.00 | 0.00 | 81 | 1017.0 |
| 20260507105149 | 53 | 0 | 0.0 | 0.0 | 0.00 | 0.00 | 0.00 | 81 | 1017.1 |
| 20260507104649 | 53 | 0 | 0.0 | 0.0 | 0.00 | 0.00 | 0.00 | 81 | 1017.2 |
| 20260507104151 | 53 | 0 | 0.0 | 0.0 | 0.00 | 0.00 | 0.00 | 81 | 1017.3 |
| 20260507103649 | 53 | 0 | 0.0 | 0.0 | 0.00 | 0.00 | 0.00 | 81 | 1017.3 |
| 20260507103148 | 53 | 0 | 0.0 | 0.0 | 0.00 | 0.00 | 0.00 | 81 | 1017.4 |
| 20260507102650 | 53 | 0 | 0.0 | 0.0 | 0.00 | 0.00 | 0.00 | 81 | 1017.4 |
| 20260507102150 | 54 | 0 | 0.0 | 0.0 | 0.00 | 0.00 | 0.00 | 80 | 1017.5 |
| 20260507101649 | 54 | 0 | 0.0 | 1.7 | 0.00 | 0.00 | 0.00 | 80 | 1017.5 |
| 20260507101151 | 54 | 0 | 0.0 | 1.7 | 0.00 | 0.00 | 0.00 | 80 | 1017.5 |
| 20260507100650 | 54 | 352 | 0.0 | 1.7 | 0.00 | 0.00 | 0.00 | 80 | 1017.5 |
| 20260507095650 | 54 | 0 | 0.0 | 0.0 | 0.00 | 0.00 | 0.00 | 80 | 1017.6 |
| 20260507094648 | 54 | 0 | 0.0 | 5.2 | 0.00 | 0.00 | 0.00 | 80 | 1017.6 |
| 20260507094151 | 54 | 336 | 0.0 | 5.2 | 0.00 | 0.00 | 0.00 | 80 | 1017.7 |
| 20260507093649 | 54 | 324 | 0.0 | 3.5 | 0.00 | 0.00 | 0.00 | 80 | 1017.7 |
| 20260507093148 | 54 | 0 | 0.0 | 0.0 | 0.00 | 0.00 | 0.00 | 81 | 1017.8 |
| 20260507092650 | 54 | 0 | 0.0 | 0.0 | 0.00 | 0.00 | 0.00 | 81 | 1017.8 |
| 20260507092148 | 54 | 0 | 0.0 | 0.0 | 0.00 | 0.00 | 0.00 | 80 | 1017.8 |
| 20260507091648 | 54 | 282 | 0.0 | 0.0 | 0.00 | 0.00 | 0.00 | 80 | 1017.9 |
| 20260507091150 | 54 | 0 | 0.0 | 3.5 | 0.00 | 0.00 | 0.00 | 80 | 1017.9 |
| 20260507090648 | 54 | 0 | 0.0 | 3.5 | 0.00 | 0.00 | 0.00 | 80 | 1018.0 |
| 20260507090149 | 55 | 341 | 0.0 | 3.5 | 0.00 | 0.00 | 0.00 | 81 | 1018.0 |
| 20260507085650 | 55 | 0 | 0.9 | 3.5 | 0.00 | 0.00 | 0.00 | 81 | 1018.0 |
| 20260507085148 | 55 | 0 | 0.0 | 3.5 | 0.00 | 0.00 | 0.00 | 81 | 1018.0 |
| 20260507084649 | 55 | 338 | 0.0 | 3.5 | 0.00 | 0.00 | 0.00 | 80 | 1018.1 |
| 20260507084152 | 55 | 306 | 1.7 | 1.7 | 0.00 | 0.00 | 0.00 | 80 | 1018.1 |
| 20260507083649 | 55 | 131 | 0.0 | 1.7 | 0.00 | 0.00 | 0.00 | 80 | 1018.1 |
| 20260507083148 | 55 | 0 | 0.0 | 3.5 | 0.00 | 0.00 | 0.00 | 80 | 1018.1 |
| 20260507082148 | 55 | 0 | 0.0 | 3.5 | 0.00 | 0.00 | 0.00 | 80 | 1018.1 |
| 20260507081649 | 55 | 333 | 0.9 | 3.5 | 0.00 | 0.00 | 0.00 | 80 | 1018.1 |
| 20260507080648 | 55 | 345 | 0.0 | 6.1 | 0.00 | 0.00 | 0.00 | 80 | 1018.1 |
| 20260507075651 | 55 | 324 | 0.0 | 6.1 | 0.00 | 0.00 | 0.00 | 80 | 1018.0 |
| 20260507075148 | 55 | 347 | 1.7 | 4.3 | 0.00 | 0.00 | 0.00 | 80 | 1018.0 |
| 20260507074648 | 55 | 345 | 0.0 | 7.8 | 0.00 | 0.00 | 0.00 | 80 | 1018.0 |
| 20260507074151 | 55 | 355 | 2.6 | 7.8 | 0.00 | 0.00 | 0.00 | 80 | 1018.1 |
| 20260507073648 | 55 | 320 | 2.6 | 7.8 | 0.00 | 0.00 | 0.00 | 81 | 1018.1 |
| 20260507073148 | 55 | 350 | 0.9 | 6.1 | 0.00 | 0.00 | 0.00 | 81 | 1018.1 |
| 20260507072649 | 55 | 320 | 3.5 | 4.3 | 0.00 | 0.00 | 0.00 | 81 | 1018.0 |
| 20260507072148 | 55 | 352 | 1.7 | 4.3 | 0.00 | 0.00 | 0.00 | 81 | 1018.0 |
| 20260507071151 | 55 | 357 | 2.6 | 6.1 | 0.00 | 0.00 | 0.00 | 81 | 1018.0 |
| 20260507070649 | 55 | 351 | 1.7 | 6.1 | 0.00 | 0.00 | 0.00 | 81 | 1018.1 |
| 20260507070148 | 55 | 347 | 0.0 | 6.1 | 0.00 | 0.00 | 0.00 | 81 | 1018.0 |
| 20260507065649 | 55 | 0 | 0.0 | 4.3 | 0.00 | 0.00 | 0.00 | 81 | 1018.1 |
| 20260507065148 | 55 | 326 | 0.9 | 4.3 | 0.00 | 0.00 | 0.00 | 81 | 1018.0 |
| 20260507064648 | 55 | 334 | 0.9 | 8.7 | 0.00 | 0.00 | 0.00 | 81 | 1018.0 |
| 20260507064150 | 55 | 326 | 4.3 | 8.7 | 0.00 | 0.00 | 0.00 | 81 | 1018.1 |
| 20260507063648 | 55 | 322 | 4.3 | 8.7 | 0.00 | 0.00 | 0.00 | 81 | 1018.1 |
| 20260507063148 | 55 | 340 | 2.6 | 2.6 | 0.00 | 0.00 | 0.00 | 81 | 1018.1 |
| 20260507062650 | 55 | 319 | 0.0 | 5.2 | 0.00 | 0.00 | 0.00 | 81 | 1018.2 |
| 20260507062148 | 55 | 338 | 0.9 | 5.2 | 0.00 | 0.00 | 0.00 | 81 | 1018.2 |
| 20260507061649 | 55 | 348 | 1.7 | 5.2 | 0.00 | 0.00 | 0.00 | 81 | 1018.2 |
| 20260507061150 | 55 | 340 | 1.7 | 3.5 | 0.00 | 0.00 | 0.00 | 81 | 1018.2 |
| 20260507060648 | 55 | 340 | 0.9 | 6.1 | 0.00 | 0.00 | 0.00 | 81 | 1018.2 |
| 20260507060148 | 55 | 350 | 0.0 | 6.1 | 0.00 | 0.00 | 0.00 | 81 | 1018.2 |
| 20260507055650 | 55 | 345 | 0.0 | 6.1 | 0.00 | 0.00 | 0.00 | 81 | 1018.3 |
| 20260507055148 | 55 | 333 | 2.6 | 7.8 | 0.00 | 0.00 | 0.00 | 81 | 1018.3 |
| 20260507054150 | 55 | 344 | 0.9 | 7.8 | 0.00 | 0.00 | 0.00 | 81 | 1018.3 |
| 20260507053648 | 55 | 337 | 5.2 | 6.1 | 0.00 | 0.00 | 0.00 | 81 | 1018.3 |
| 20260507053148 | 56 | 337 | 4.3 | 6.1 | 0.00 | 0.00 | 0.00 | 82 | 1018.3 |
| 20260507052148 | 56 | 324 | 2.6 | 6.1 | 0.00 | 0.00 | 0.00 | 82 | 1018.4 |
| 20260507051648 | 56 | 330 | 1.7 | 5.2 | 0.00 | 0.00 | 0.00 | 82 | 1018.4 |
| 20260507051151 | 56 | 345 | 2.6 | 5.2 | 0.00 | 0.00 | 0.00 | 82 | 1018.4 |
| 20260507050648 | 56 | 317 | 3.5 | 4.3 | 0.00 | 0.00 | 0.00 | 82 | 1018.4 |
| 20260507050148 | 56 | 308 | 1.7 | 2.6 | 0.00 | 0.00 | 0.00 | 82 | 1018.4 |
| 20260507045650 | 56 | 315 | 1.7 | 6.1 | 0.00 | 0.00 | 0.00 | 82 | 1018.3 |
| 20260507045149 | 56 | 18 | 2.6 | 6.1 | 0.00 | 0.00 | 0.00 | 82 | 1018.4 |
| 20260507044648 | 56 | 333 | 0.9 | 6.1 | 0.00 | 0.00 | 0.00 | 82 | 1018.4 |
| 20260507044150 | 56 | 15 | 3.5 | 9.6 | 0.00 | 0.00 | 0.00 | 82 | 1018.4 |
| 20260507043649 | 56 | 347 | 2.6 | 9.6 | 0.00 | 0.00 | 0.00 | 82 | 1018.5 |
| 20260507043149 | 56 | 319 | 4.3 | 9.6 | 0.00 | 0.00 | 0.00 | 82 | 1018.5 |
| 20260507042149 | 56 | 322 | 4.3 | 9.6 | 0.00 | 0.00 | 0.00 | 82 | 1018.4 |
| 20260507041648 | 56 | 302 | 5.2 | 8.7 | 0.00 | 0.00 | 0.00 | 82 | 1018.5 |
| 20260507041152 | 56 | 5 | 5.2 | 7.0 | 0.00 | 0.00 | 0.00 | 82 | 1018.4 |
| 20260507040648 | 56 | 326 | 3.5 | 7.0 | 0.00 | 0.00 | 0.00 | 82 | 1018.4 |
| 20260507035649 | 56 | 7 | 4.3 | 6.1 | 0.00 | 0.00 | 0.00 | 82 | 1018.4 |
| 20260507035149 | 56 | 348 | 3.5 | 6.1 | 0.00 | 0.00 | 0.00 | 82 | 1018.3 |
| 20260507034150 | 56 | 330 | 2.6 | 7.8 | 0.00 | 0.00 | 0.00 | 82 | 1018.3 |
| 20260507033648 | 56 | 350 | 2.6 | 7.8 | 0.00 | 0.00 | 0.00 | 82 | 1018.2 |
| 20260507033148 | 56 | 348 | 4.3 | 7.8 | 0.00 | 0.00 | 0.00 | 82 | 1018.2 |
| 20260507032649 | 56 | 312 | 4.3 | 7.0 | 0.00 | 0.00 | 0.00 | 82 | 1018.2 |
| 20260507032150 | 56 | 347 | 3.5 | 7.0 | 0.00 | 0.00 | 0.00 | 82 | 1018.2 |
| 20260507031649 | 56 | 327 | 3.5 | 7.0 | 0.00 | 0.00 | 0.00 | 82 | 1018.2 |
| 20260507031151 | 57 | 319 | 3.5 | 4.3 | 0.00 | 0.00 | 0.00 | 82 | 1018.1 |
| 20260507030148 | 57 | 327 | 0.9 | 4.3 | 0.00 | 0.00 | 0.00 | 82 | 1018.1 |
| 20260507025650 | 57 | 331 | 2.6 | 5.2 | 0.00 | 0.00 | 0.00 | 82 | 1018.2 |
| 20260507025148 | 57 | 337 | 3.5 | 5.2 | 0.00 | 0.00 | 0.00 | 82 | 1018.2 |
| 20260507024648 | 57 | 322 | 3.5 | 5.2 | 0.00 | 0.00 | 0.00 | 81 | 1018.1 |
| 20260507024150 | 57 | 351 | 3.5 | 5.2 | 0.00 | 0.00 | 0.00 | 81 | 1018.1 |
| 20260507023648 | 57 | 333 | 3.5 | 5.2 | 0.00 | 0.00 | 0.00 | 81 | 1018.0 |
| 20260507023148 | 57 | 329 | 0.9 | 5.2 | 0.00 | 0.00 | 0.00 | 81 | 1018.1 |
| 20260507022649 | 57 | 330 | 2.6 | 5.2 | 0.00 | 0.00 | 0.00 | 81 | 1018.0 |
| 20260507022149 | 57 | 343 | 2.6 | 4.3 | 0.00 | 0.00 | 0.00 | 81 | 1018.0 |
| 20260507021648 | 57 | 350 | 3.5 | 7.0 | 0.00 | 0.00 | 0.00 | 81 | 1018.0 |
| 20260507021150 | 57 | 313 | 2.6 | 7.0 | 0.00 | 0.00 | 0.00 | 81 | 1018.1 |
| 20260507020649 | 58 | 341 | 3.5 | 7.0 | 0.00 | 0.00 | 0.00 | 81 | 1018.1 |
| 20260507020148 | 58 | 337 | 4.3 | 5.2 | 0.00 | 0.00 | 0.00 | 80 | 1018.1 |
| 20260507015649 | 58 | 357 | 3.5 | 5.2 | 0.00 | 0.00 | 0.00 | 80 | 1018.1 |
| 20260507015149 | 58 | 338 | 1.7 | 5.2 | 0.00 | 0.00 | 0.00 | 80 | 1018.1 |
| 20260507014648 | 58 | 319 | 2.6 | 5.2 | 0.00 | 0.00 | 0.00 | 80 | 1018.2 |
| 20260507014150 | 58 | 313 | 1.7 | 4.3 | 0.00 | 0.00 | 0.00 | 80 | 1018.2 |
| 20260507013648 | 58 | 306 | 0.9 | 4.3 | 0.00 | 0.00 | 0.00 | 80 | 1018.2 |
| 20260507013149 | 58 | 317 | 2.6 | 2.6 | 0.00 | 0.00 | 0.00 | 80 | 1018.3 |
| 20260507012650 | 58 | 306 | 1.7 | 2.6 | 0.00 | 0.00 | 0.00 | 80 | 1018.3 |
| 20260507012150 | 58 | 298 | 0.9 | 4.3 | 0.00 | 0.00 | 0.00 | 79 | 1018.3 |
| 20260507011150 | 58 | 289 | 0.9 | 4.3 | 0.00 | 0.00 | 0.00 | 79 | 1018.3 |
| 20260507010649 | 58 | 294 | 1.7 | 4.3 | 0.00 | 0.00 | 0.00 | 79 | 1018.4 |
| 20260507010148 | 58 | 326 | 2.6 | 4.3 | 0.00 | 0.00 | 0.00 | 79 | 1018.4 |
| 20260507005649 | 58 | 306 | 3.5 | 4.3 | 0.00 | 0.00 | 0.00 | 79 | 1018.5 |
| 20260507005148 | 58 | 278 | 2.6 | 5.2 | 0.00 | 0.00 | 0.00 | 79 | 1018.5 |
| 20260507004648 | 59 | 323 | 1.7 | 5.2 | 0.00 | 0.00 | 0.00 | 79 | 1018.4 |
| 20260507004150 | 59 | 287 | 1.7 | 5.2 | 0.00 | 0.00 | 0.00 | 79 | 1018.4 |
| 20260507003648 | 59 | 289 | 3.5 | 5.2 | 0.00 | 0.00 | 0.00 | 79 | 1018.5 |
| 20260507003149 | 59 | 299 | 1.7 | 5.2 | 0.00 | 0.00 | 0.00 | 80 | 1018.5 |
| 20260507002149 | 58 | 284 | 3.5 | 5.2 | 0.00 | 0.00 | 0.00 | 80 | 1018.5 |
| 20260507001648 | 58 | 292 | 4.3 | 5.2 | 0.00 | 0.00 | 0.00 | 80 | 1018.5 |
| 20260507001150 | 58 | 308 | 2.6 | 5.2 | 0.00 | 0.00 | 0.00 | 80 | 1018.6 |
| 20260507000149 | 58 | 310 | 3.5 | 5.2 | 0.00 | 0.00 | 0.00 | 80 | 1018.6 |
| 20260506235649 | 58 | 302 | 3.5 | 5.2 | 0.00 | 0.00 | 0.00 | 80 | 1018.6 |
| 20260506235148 | 58 | 303 | 4.3 | 6.1 | 0.00 | 0.00 | 0.00 | 80 | 1018.6 |
| 20260506234648 | 58 | 299 | 3.5 | 6.1 | 0.00 | 0.00 | 0.00 | 80 | 1018.6 |
| 20260506234151 | 58 | 308 | 2.6 | 6.1 | 0.00 | 0.00 | 0.00 | 79 | 1018.7 |
| 20260506233648 | 58 | 289 | 2.6 | 6.1 | 0.00 | 0.00 | 0.00 | 79 | 1018.7 |
| 20260506233149 | 58 | 288 | 4.3 | 7.0 | 0.00 | 0.00 | 0.00 | 79 | 1018.7 |
| 20260506232649 | 58 | 306 | 4.3 | 7.0 | 0.00 | 0.00 | 0.00 | 80 | 1018.7 |
| 20260506232148 | 58 | 301 | 4.3 | 7.0 | 0.00 | 0.00 | 0.00 | 79 | 1018.7 |
| 20260506231649 | 58 | 271 | 3.5 | 7.0 | 0.00 | 0.00 | 0.00 | 79 | 1018.8 |
| 20260506231150 | 58 | 296 | 2.6 | 7.0 | 0.00 | 0.00 | 0.00 | 79 | 1018.7 |
| 20260506230148 | 58 | 287 | 5.2 | 7.0 | 0.00 | 0.00 | 0.00 | 79 | 1018.8 |
| 20260506225649 | 58 | 315 | 3.5 | 7.0 | 0.00 | 0.00 | 0.00 | 79 | 1018.9 |
| 20260506225148 | 58 | 313 | 3.5 | 6.1 | 0.00 | 0.00 | 0.00 | 79 | 1018.8 |
| 20260506224150 | 58 | 306 | 3.5 | 6.1 | 0.00 | 0.00 | 0.00 | 78 | 1018.9 |
| 20260506223648 | 59 | 306 | 4.3 | 5.2 | 0.00 | 0.00 | 0.00 | 78 | 1019.0 |
| 20260506223149 | 59 | 299 | 3.5 | 7.8 | 0.00 | 0.00 | 0.00 | 78 | 1019.0 |
| 20260506222649 | 59 | 295 | 3.5 | 7.8 | 0.00 | 0.00 | 0.00 | 78 | 1019.1 |
| 20260506222148 | 59 | 294 | 4.3 | 7.8 | 0.00 | 0.00 | 0.00 | 78 | 1019.1 |
| 20260506221648 | 59 | 292 | 4.3 | 7.0 | 0.00 | 0.00 | 0.00 | 78 | 1019.1 |
| 20260506221150 | 59 | 288 | 3.5 | 7.0 | 0.00 | 0.00 | 0.00 | 78 | 1019.1 |
| 20260506220648 | 59 | 320 | 2.6 | 6.1 | 0.00 | 0.00 | 0.00 | 78 | 1019.0 |
| 20260506215649 | 59 | 274 | 5.2 | 7.0 | 0.00 | 0.00 | 0.00 | 78 | 1019.0 |
| 20260506215150 | 59 | 296 | 4.3 | 7.0 | 0.00 | 0.00 | 0.00 | 78 | 1018.9 |
| 20260506214649 | 59 | 295 | 3.5 | 7.8 | 0.00 | 0.00 | 0.00 | 77 | 1018.9 |
| 20260506214150 | 60 | 295 | 3.5 | 7.8 | 0.00 | 0.00 | 0.00 | 78 | 1018.8 |
| 20260506213148 | 59 | 295 | 5.2 | 7.0 | 0.00 | 0.00 | 0.00 | 78 | 1018.8 |
| 20260506212650 | 59 | 298 | 5.2 | 7.0 | 0.00 | 0.00 | 0.00 | 78 | 1018.8 |
| 20260506212149 | 59 | 301 | 4.3 | 6.1 | 0.00 | 0.00 | 0.00 | 78 | 1018.7 |
| 20260506211150 | 59 | 310 | 3.5 | 7.0 | 0.00 | 0.00 | 0.00 | 77 | 1018.8 |
| 20260506210648 | 60 | 291 | 3.5 | 7.0 | 0.00 | 0.00 | 0.00 | 77 | 1018.8 |
| 20260506210148 | 60 | 302 | 3.5 | 7.0 | 0.00 | 0.00 | 0.00 | 77 | 1018.8 |
| 20260506205148 | 59 | 274 | 4.3 | 5.2 | 0.00 | 0.00 | 0.00 | 77 | 1018.8 |
| 20260506204648 | 59 | 295 | 3.5 | 5.2 | 0.00 | 0.00 | 0.00 | 77 | 1018.8 |
| 20260506204150 | 59 | 294 | 2.6 | 5.2 | 0.00 | 0.00 | 0.00 | 76 | 1018.7 |
| 20260506203648 | 60 | 282 | 3.5 | 5.2 | 0.00 | 0.00 | 0.00 | 77 | 1018.6 |
| 20260506203149 | 60 | 288 | 4.3 | 6.1 | 0.00 | 0.00 | 0.00 | 78 | 1018.6 |
| 20260506202649 | 59 | 296 | 4.3 | 6.1 | 0.00 | 0.00 | 0.00 | 77 | 1018.6 |
| 20260506202150 | 59 | 298 | 4.3 | 6.1 | 0.00 | 0.00 | 0.00 | 77 | 1018.5 |
| 20260506201648 | 59 | 302 | 4.3 | 6.1 | 0.00 | 0.00 | 0.00 | 77 | 1018.6 |
| 20260506201150 | 59 | 301 | 3.5 | 6.1 | 0.00 | 0.00 | 0.00 | 78 | 1018.6 |
| 20260506200648 | 59 | 289 | 4.3 | 5.2 | 0.00 | 0.00 | 0.00 | 77 | 1018.6 |
| 20260506200148 | 59 | 284 | 2.6 | 4.3 | 0.00 | 0.00 | 0.00 | 78 | 1018.6 |